Location: Osnabrueck
(52.2800°N, 7.9700°E)
Time: 23:13:04
(UTC+02:00)

Envisat - Pass Details

Date: 27 August 2019
Orbit: 764 x 766 km, 98.1° (Epoch: 15 September)

Event Time Altitude Azimuth Distance (km) Brightness Sun altitude
Rises 21:16:40 0° 222° (SW) 3,225 6.4 -7.7°
Reaches altitude 10° 21:20:25 10° 251° (WSW) 2,305 6.1 -8.2°
Maximum altitude 21:22:35 13° 276° (W) 2,129 6.5 -8.5°
Drops below altitude 10° 21:24:46 10° 302° (WNW) 2,312 7.2 -8.8°
Sets 21:28:34 0° 331° (NNW) 3,245 7.4 -9.3°
